Regional Weather Roundup
Issued by NWS

Home | Current Version | Previous Version | Graphics & Text | Print | Product List | Glossary On
Versions: 1 2 3 4 5 6 7 8 9 10 11 12 13 14 15 16 17 18 19 20 21 22 23 24 25 26 27 28 29 30 31 32 33 34 35 36 37 38 39 40 41 42 43 44 45 46 47 48 49 50
000
ASUS43 KFSD 220810
RWRSD

WEATHER ROUNDUP FOR SOUTH DAKOTA
NATIONAL WEATHER SERVICE SIOUX FALLS SD
300 AM CDT FRI AUG 22 2014

NOTE: "FAIR" INDICATES FEW OR NO CLOUDS BELOW 12,000 FEET WITH NO
SIGNIFICANT WEATHER AND/OR OBSTRUCTIONS TO VISIBILITY.


SDZ001>005-009-010-012>017-220900-
NORTHWEST AND NORTH CENTRAL SOUTH DAKOTA

CITY           SKY/WX    TMP DP  RH WIND       PRES   REMARKS
BUFFALO          N/A     60  59  96 E13       29.98F
FAITH            N/A     62  61  96 NE15      30.00F
MOBRIDGE       LGT RAIN  66  64  93 NW12      29.98R
$$

SDZ012>016-024>037-041>051-057-063-072>074-220900-
SOUTHWEST AND SOUTH CENTRAL SOUTH DAKOTA

CITY           SKY/WX    TMP DP  RH WIND       PRES   REMARKS
RAPID CTY ARPT MOCLDY    63  60  90 N16       30.01R
PIERRE         PTCLDY    66  64  93 SE10      29.91S
CUSTER         CLEAR     53  49  86 NW3       30.12S
ELLSWORTH AFB  MOCLDY    64  61  90 N20       30.01S
PHILIP         MOCLDY    64  59  83 N7        29.94R
PINE RIDGE     MOCLDY    70  52  52 S5        29.98S
WINNER         FAIR      68  63  84 SE7       29.94S
$$

SDZ004>011-016>023-039-040-220900-
NORTHEAST SOUTH DAKOTA

CITY           SKY/WX    TMP DP  RH WIND       PRES   REMARKS
ABERDEEN       CLEAR     63  63 100 N6        29.91R
WATERTOWN      FOG       63  63 100 CALM      29.92R VSB 1/2
SISSETON         N/A     64  64 100 CALM      29.88S
$$

SDZ017-020-022-023-036>040-048>070-220900-
SOUTHEAST SOUTH DAKOTA

CITY           SKY/WX    TMP DP  RH WIND       PRES   REMARKS
SIOUX FALLS    CLEAR     68  66  93 CALM      29.90R
HURON          CLEAR     63  62  97 CALM      29.91S
CHAMBERLAIN    CLEAR     65  64  94 CALM      29.93F
MITCHELL       CLEAR     65  64  97 NW5       29.91F
YANKTON        CLEAR     68  66  94 CALM      29.89R
$$

ABBREVIATIONS USED IN REMARKS
   TC - TEMPERATURE IN CELSIUS
  WCI - WIND CHILL INDEX
   HX - HEAT INDEX
  VSB - VISIBILITY




USA.gov is the U.S. government's official web portal to all federal, state and local government web resources and services.